FW6924 Weather Reports


Display with metric or nautical units.
time (UTC)temp
F
wind
direction
speed
MPH
gust
MPH
rain 1hr
in
rain 24hr
in
rain mn
in
humidity
%
barometer
mb
20260506051002 71 107 0.0 3.0 0.00 0.00 0.00 86 1014.5
20260506044002 72 102 0.0 3.0 0.00 0.00 0.00 85 1014.5
20260506043004 72 115 1.0 4.0 0.00 0.00 0.00 84 1014.3
20260506041004 73 105 1.0 3.0 0.00 0.00 0.00 83 1014.5
20260506040006 73 107 2.0 4.0 0.00 0.00 0.00 82 1014.6
20260506035002 74 111 2.0 6.0 0.00 0.00 0.00 81 1014.5
20260506034002 74 123 2.0 7.0 0.00 0.00 0.00 81 1014.7
20260506032004 75 109 3.0 8.0 0.00 0.00 0.00 79 1014.4
20260506030007 76 112 4.0 9.0 0.00 0.00 0.00 76 1014.5
20260506024004 77 106 3.0 8.0 0.00 0.00 0.00 75 1014.3
20260506023002 77 115 2.0 7.0 0.00 0.00 0.00 74 1014.2
20260506022004 77 112 4.0 8.0 0.00 0.00 0.00 74 1014.1
20260506021002 78 105 3.0 7.0 0.00 0.00 0.00 73 1014.0
20260506015002 78 107 3.0 7.0 0.00 0.00 0.00 73 1013.8
20260506014004 78 119 1.0 4.0 0.00 0.00 0.00 72 1013.6
20260506013002 79 101 1.0 4.0 0.00 0.00 0.00 71 1013.6
20260506011002 79 91 0.0 2.0 0.00 0.00 0.00 71 1013.4
20260506010007 79 91 0.0 2.0 0.00 0.00 0.00 70 1013.4
20260506005002 80 89 0.0 2.0 0.00 0.00 0.00 70 1013.2
20260506004002 80 74 0.0 2.0 0.00 0.00 0.00 72 1013.0
20260506003002 80 69 0.0 3.0 0.00 0.00 0.00 71 1012.8
20260506002002 81 22 0.0 1.0 0.00 0.00 0.00 70 1012.6
20260506000004 81 355 0.0 3.0 0.00 0.00 0.00 69 1012.5
20260505235003 81 355 1.0 4.0 0.00 0.00 0.00 69 1012.4
20260505234001 82 316 1.0 3.0 0.00 0.00 0.00 68 1012.3
20260505233003 82 280 3.0 6.0 0.00 0.00 0.00 67 1012.3
20260505232001 83 296 3.0 8.0 0.00 0.00 0.00 66 1012.3
20260505231001 83 289 4.0 8.0 0.00 0.00 0.00 66 1012.2
20260505230005 83 333 4.0 10.0 0.00 0.00 0.00 65 1012.1
20260505224003 84 276 5.0 9.0 0.00 0.00 0.00 65 1011.8
20260505223001 83 286 5.0 9.0 0.00 0.00 0.00 65 1011.8
20260505221001 84 244 6.0 11.0 0.00 0.00 0.00 63 1011.6
20260505220006 85 252 5.0 10.0 0.00 0.00 0.00 62 1011.5
20260505215001 85 254 7.0 13.0 0.00 0.00 0.00 62 1011.4
20260505213001 85 258 6.0 13.0 0.00 0.00 0.00 64 1011.6
20260505211000 85 238 5.0 9.0 0.00 0.00 0.00 62 1011.6
20260505210005 86 275 4.0 9.0 0.00 0.00 0.00 60 1011.6
20260505205001 87 217 1.0 4.0 0.00 0.00 0.00 49 1011.7
20260505204003 87 131 1.0 4.0 0.00 0.00 0.00 50 1011.7
20260505203001 87 109 1.0 4.0 0.00 0.00 0.00 50 1011.6
20260505201001 89 330 2.0 7.0 0.00 0.00 0.00 44 1011.6
20260505200005 90 69 1.0 8.0 0.00 0.00 0.00 43 1011.8
20260505195001 89 134 2.0 6.0 0.00 0.00 0.00 47 1011.7
20260505194003 89 140 2.0 8.0 0.00 0.00 0.00 47 1011.8
20260505193001 89 115 1.0 6.0 0.00 0.00 0.00 46 1011.8
20260505192003 89 127 1.0 6.0 0.00 0.00 0.00 51 1011.9
20260505191001 87 150 1.0 4.0 0.00 0.00 0.00 51 1012.0
20260505190006 88 146 2.0 7.0 0.00 0.00 0.00 47 1012.2
20260505185000 89 87 4.0 9.0 0.00 0.00 0.00 48 1012.3
20260505184004 89 135 2.0 7.0 0.00 0.00 0.00 51 1012.3
20260505183001 87 106 1.0 6.0 0.00 0.00 0.00 51 1012.5
20260505182001 87 93 3.0 9.0 0.00 0.00 0.00 52 1012.8
20260505181001 88 32 2.0 4.0 0.00 0.00 0.00 51 1012.8
20260505180003 88 188 3.0 8.0 0.00 0.00 0.00 53 1012.8
20260505175022 88 76 3.0 8.0 0.00 0.00 0.00 55 1013.0
20260505173001 87 128 3.0 13.0 0.00 0.00 0.00 57 1013.3
20260505172001 86 156 2.0 10.0 0.00 0.00 0.00 60 1013.3
20260505171001 85 132 1.0 8.0 0.00 0.00 0.00 58 1013.2
20260505170006 85 150 2.0 7.0 0.00 0.00 0.00 62 1013.3
20260505165001 86 132 3.0 10.0 0.00 0.00 0.00 60 1013.4
20260505164003 85 46 2.0 6.0 0.00 0.00 0.00 63 1013.6
20260505162003 84 90 3.0 10.0 0.00 0.00 0.00 65 1013.6
20260505161001 84 124 4.0 11.0 0.00 0.00 0.00 63 1013.9
20260505153003 81 120 3.0 9.0 0.00 0.00 0.00 71 1014.0
20260505151003 81 120 5.0 11.0 0.00 0.00 0.00 70 1014.3
20260505125000 72 120 4.0 10.0 0.00 0.00 0.00 83 1013.7
20260505124002 71 41 4.0 9.0 0.00 0.00 0.00 85 1013.7
20260505123000 71 111 3.0 9.0 0.00 0.00 0.00 86 1013.7
20260505121000 69 86 3.0 6.0 0.00 0.00 0.00 89 1013.5
20260505120006 68 118 3.0 7.0 0.00 0.00 0.00 90 1013.3
20260505115001 67 91 2.0 6.0 0.00 0.00 0.00 91 1013.1
20260505113000 65 93 1.0 4.0 0.00 0.00 0.00 93 1013.0
20260505112002 65 97 1.0 4.0 0.00 0.00 0.00 92 1012.8
20260505111001 65 88 1.0 3.0 0.00 0.00 0.00 92 1012.6
20260505101000 65 91 0.0 2.0 0.00 0.00 0.00 92 1012.3
20260505095002 65 100 0.0 0.0 0.00 0.00 0.00 91 1012.1
20260505094001 65 100 1.0 4.0 0.00 0.00 0.00 91 1012.0
20260505093003 66 101 0.0 3.0 0.00 0.00 0.00 91 1012.0
20260505092002 66 101 0.0 2.0 0.00 0.00 0.00 91 1012.0
20260505090004 66 104 2.0 4.0 0.00 0.00 0.00 91 1011.9
20260505084959 66 105 1.0 3.0 0.00 0.00 0.00 91 1011.8
20260505084001 66 94 0.0 2.0 0.00 0.00 0.00 90 1012.0
20260505083001 66 95 0.0 2.0 0.00 0.00 0.00 90 1012.0
20260505082001 67 95 0.0 2.0 0.00 0.00 0.00 90 1012.0
20260505080959 67 98 0.0 2.0 0.00 0.00 0.00 90 1012.1
20260505080005 67 97 0.0 3.0 0.00 0.00 0.00 90 1012.1
20260505074959 67 97 0.0 2.0 0.00 0.00 0.00 90 1012.0
20260505074002 67 99 0.0 2.0 0.00 0.00 0.00 89 1012.1
20260505072001 67 99 0.0 1.0 0.00 0.00 0.00 89 1012.1
20260505070959 67 99 0.0 2.0 0.00 0.00 0.00 89 1012.3
20260505070004 67 100 1.0 7.0 0.00 0.00 0.00 89 1012.3
20260505064959 67 102 1.0 3.0 0.00 0.00 0.00 89 1012.3
20260505062959 67 67 0.0 2.0 0.00 0.00 0.00 89 1012.7
20260505062001 67 65 1.0 3.0 0.00 0.00 0.00 88 1012.7
20260505060959 67 104 0.0 2.0 0.00 0.00 0.00 88 1012.5
20260505060005 68 105 0.0 1.0 0.00 0.00 0.00 88 1012.7
20260505054959 68 105 0.0 3.0 0.00 0.00 0.00 88 1012.9
20260505053959 68 107 0.0 1.0 0.00 0.00 0.00 88 1012.9
20260505052959 68 107 1.0 3.0 0.00 0.00 0.00 88 1013.1